Retour au catalogue

STARLINK-36446

ActifCommunicationsVLEO
NORAD 67412·PAYLOAD·🇺🇸 United States

Lancé Jan 12, 2026 depuis Cape Canaveral Space Force Station

Loading…

Prochains Passages (prochaines 24 heures)

TLE

FraisSource: CelesTrak SupGP

Époque: Sep 14, 2026, 22:35 UTC

1 67412C 26005J   26257.94145833  .00032354  00000+0  11718-2 0  2575
2 67412  43.0026 249.1755 0001283 263.8896 335.2756 15.27563185    11

Suivez STARLINK-36446 en temps réel avec AllMySat

Download on the App Store